Tracking 22456 objects as of 7-Mar-2021
HD Live streaming from Space Station
objects crossing your sky now

DIAMANT DEB


DIAMANT DEB is no longer on orbit


NORAD ID: 2161
Int'l Code: 1966-013G
Perigee: N/A
Apogee: N/A
Inclination: N/A
Period: N/A
Semi major axis: N/A
RCS: N/A
Launch date: February 17, 1966
Source: France (FR)
Launch site: HAMMA GUIRA SPACE TRACK RANGE (HGSTR)
Decay date: 2015-08-12

Note: This is SATELLITE DEBRIS
aabbcc
Your satellite tracking list
Your tracking list is empty




NASA's NSSDC Master Catalog

Two Line Element Set (TLE):
1 02161U 66013G   15224.64981008  .03911266  34575-1  42836-2 0  9994
2 02161 034.0647 329.6800 0006695 092.4177 038.7734 16.13033702395814
Source of the keplerian elements: AFSPC